Hourly Weather Rezekne

Today, 14 June, Monday

Time Temperature Precipitation Wind Pressure Humidity
00:00 +11°C° 0 mm 3 mps 745 mmHg 97%
01:00 +10°C° 0 mm 3 mps 746 mmHg 96%
02:00 +9°C° 0 mm 3 mps 746 mmHg 96%
03:00 +9°C° 0 mm 3 mps 747 mmHg 95%
04:00 +9°C° 0 mm 3 mps 747 mmHg 95%
05:00 +9°C° 0 mm 2 mps 747 mmHg 94%
06:00 +10°C° 0 mm 2 mps 748 mmHg 86%
07:00 +12°C° 0 mm 3 mps 748 mmHg 78%
08:00 +14°C° 0 mm 3 mps 749 mmHg 70%
09:00 +17°C° 0 mm 2 mps 749 mmHg 64%
10:00 +18°C° 0 mm 2 mps 749 mmHg 58%
11:00 +20°C° 0 mm 2 mps 749 mmHg 52%
12:00 +21°C° 0 mm 2 mps 749 mmHg 50%
13:00 +21°C° 0 mm 2 mps 749 mmHg 48%
14:00 +23°C° 0 mm 2 mps 749 mmHg 45%
15:00 +23°C° 0 mm 2 mps 749 mmHg 46%
16:00 +23°C° 0 mm 2 mps 748 mmHg 46%
17:00 +23°C° 0 mm 1 mps 748 mmHg 46%
18:00 +21°C° 0 mm 1 mps 748 mmHg 54%
19:00 +19°C° 0 mm 1 mps 748 mmHg 62%
20:00 +18°C° 0 mm 1 mps 748 mmHg 70%
21:00 +15°C° 0 mm 2 mps 748 mmHg 72%
22:00 +14°C° 0 mm 2 mps 748 mmHg 74%
23:00 +12°C° 0 mm 2 mps 748 mmHg 75%

Tomorrow, 15 June, Tuesday

Time Temperature Precipitation Wind Pressure Humidity
00:00 +12°C° 0 mm 2 mps 747 mmHg 79%
01:00 +10°C° 0 mm 2 mps 747 mmHg 82%
02:00 +9°C° 0 mm 2 mps 747 mmHg 86%
03:00 +10°C° 0 mm 2 mps 747 mmHg 85%
04:00 +10°C° 0 mm 2 mps 747 mmHg 85%
05:00 +10°C° 0 mm 2 mps 747 mmHg 84%
06:00 +12°C° 0 mm 3 mps 747 mmHg 78%
07:00 +14°C° 0 mm 4 mps 746 mmHg 72%
08:00 +17°C° 0 mm 4 mps 746 mmHg 67%
09:00 +18°C° 0 mm 4 mps 746 mmHg 65%
10:00 +19°C° 0 mm 5 mps 746 mmHg 63%
11:00 +20°C° 0 mm 5 mps 746 mmHg 61%
12:00 +20°C° 0 mm 5 mps 746 mmHg 64%
13:00 +20°C° 0 mm 5 mps 745 mmHg 68%
14:00 +20°C° 0 mm 5 mps 745 mmHg 71%
15:00 +19°C° 0.3 mm 4 mps 745 mmHg 78%
16:00 +19°C° 0.3 mm 4 mps 745 mmHg 84%
17:00 +18°C° 0.3 mm 3 mps 745 mmHg 91%
18:00 +17°C° 0.1 mm 3 mps 745 mmHg 91%
19:00 +17°C° 0.1 mm 2 mps 745 mmHg 90%
20:00 +16°C° 0.1 mm 2 mps 745 mmHg 90%
21:00 +15°C° 0 mm 2 mps 746 mmHg 90%
22:00 +13°C° 0 mm 2 mps 746 mmHg 91%
23:00 +10°C° 0 mm 2 mps 747 mmHg 91%

Day after tomorrow, 16 June, Wednesday

Time Temperature Precipitation Wind Pressure Humidity
00:00 +9°C° 0 mm 2 mps 747 mmHg 92%
01:00 +8°C° 0 mm 2 mps 747 mmHg 93%
02:00 +7°C° 0 mm 2 mps 748 mmHg 94%
03:00 +8°C° 0 mm 2 mps 748 mmHg 94%
04:00 +8°C° 0 mm 2 mps 749 mmHg 94%
05:00 +9°C° 0 mm 1 mps 749 mmHg 94%
06:00 +11°C° 0 mm 1 mps 749 mmHg 85%
07:00 +13°C° 0 mm 2 mps 750 mmHg 75%
08:00 +15°C° 0 mm 2 mps 750 mmHg 66%
09:00 +16°C° 0 mm 1 mps 750 mmHg 59%
10:00 +19°C° 0 mm 1 mps 750 mmHg 53%
11:00 +20°C° 0 mm 1 mps 751 mmHg 46%
12:00 +21°C° 0 mm 1 mps 751 mmHg 44%
13:00 +22°C° 0 mm 1 mps 751 mmHg 43%
14:00 +22°C° 0 mm 1 mps 751 mmHg 41%
15:00 +22°C° 0 mm 1 mps 751 mmHg 42%
16:00 +22°C° 0 mm 1 mps 751 mmHg 44%
17:00 +22°C° 0 mm 1 mps 751 mmHg 45%
18:00 +20°C° 0 mm 1 mps 751 mmHg 53%
19:00 +19°C° 0 mm 1 mps 751 mmHg 61%
20:00 +16°C° 0 mm 1 mps 751 mmHg 69%
21:00 +15°C° 0 mm 1 mps 751 mmHg 70%
22:00 +14°C° 0 mm 1 mps 751 mmHg 71%
23:00 +13°C° 0 mm 1 mps 752 mmHg 72%

17 June, Thursday

Time Temperature Precipitation Wind Pressure Humidity
00:00 +12°C° 0 mm 1 mps 752 mmHg 75%
01:00 +12°C° 0 mm 1 mps 752 mmHg 77%
02:00 +11°C° 0 mm 1 mps 753 mmHg 80%
03:00 +12°C° 0 mm 1 mps 753 mmHg 80%
04:00 +12°C° 0 mm 1 mps 753 mmHg 81%
05:00 +13°C° 0 mm 1 mps 753 mmHg 81%
06:00 +15°C° 0 mm 1 mps 753 mmHg 74%
07:00 +18°C° 0 mm 1 mps 754 mmHg 67%
08:00 +20°C° 0 mm 1 mps 754 mmHg 61%
09:00 +21°C° 0 mm 1 mps 754 mmHg 56%
10:00 +23°C° 0 mm 1 mps 754 mmHg 51%
11:00 +24°C° 0 mm 1 mps 754 mmHg 47%
12:00 +24°C° 0 mm 1 mps 754 mmHg 45%
13:00 +25°C° 0 mm 1 mps 754 mmHg 44%
14:00 +26°C° 0 mm 1 mps 754 mmHg 42%
15:00 +26°C° 0 mm 1 mps 754 mmHg 44%
16:00 +25°C° 0 mm 1 mps 754 mmHg 46%
17:00 +25°C° 0 mm 1 mps 754 mmHg 47%
18:00 +24°C° 0 mm 1 mps 754 mmHg 56%
19:00 +22°C° 0 mm 1 mps 754 mmHg 65%
20:00 +20°C° 0 mm 1 mps 754 mmHg 74%
21:00 +19°C° 0 mm 1 mps 754 mmHg 77%
22:00 +18°C° 0 mm 1 mps 754 mmHg 80%
23:00 +16°C° 0 mm 1 mps 754 mmHg 83%

18 June, Friday

Time Temperature Precipitation Wind Pressure Humidity
00:00 +15°C° 0 mm 2 mps 754 mmHg 84%
01:00 +14°C° 0 mm 2 mps 754 mmHg 85%
02:00 +14°C° 0 mm 2 mps 754 mmHg 86%
03:00 +14°C° 0 mm 2 mps 754 mmHg 86%
04:00 +15°C° 0 mm 2 mps 754 mmHg 87%
05:00 +15°C° 0 mm 2 mps 754 mmHg 87%
06:00 +17°C° 0 mm 2 mps 754 mmHg 80%
07:00 +19°C° 0 mm 2 mps 755 mmHg 73%
08:00 +21°C° 0 mm 2 mps 755 mmHg 66%
09:00 +24°C° 0 mm 2 mps 754 mmHg 60%
10:00 +25°C° 0 mm 3 mps 754 mmHg 55%
11:00 +26°C° 0 mm 3 mps 754 mmHg 50%
12:00 +27°C° 0 mm 3 mps 754 mmHg 48%
13:00 +27°C° 0 mm 3 mps 754 mmHg 46%
14:00 +28°C° 0 mm 3 mps 754 mmHg 44%
15:00 +28°C° 0 mm 3 mps 754 mmHg 47%
16:00 +27°C° 0 mm 3 mps 753 mmHg 49%
17:00 +27°C° 0 mm 3 mps 753 mmHg 52%
18:00 +25°C° 0 mm 3 mps 753 mmHg 61%
19:00 +24°C° 0 mm 2 mps 753 mmHg 69%
20:00 +21°C° 0 mm 2 mps 753 mmHg 78%
21:00 +20°C° 0 mm 2 mps 753 mmHg 80%
22:00 +19°C° 0 mm 2 mps 754 mmHg 83%
23:00 +18°C° 0 mm 2 mps 754 mmHg 86%

19 June, Saturday

Time Temperature Precipitation Wind Pressure Humidity
00:00 +17°C° 0 mm 2 mps 754 mmHg 88%
01:00 +16°C° 0 mm 2 mps 754 mmHg 89%
02:00 +16°C° 0 mm 2 mps 754 mmHg 91%
03:00 +16°C° 0 mm 2 mps 754 mmHg 90%
04:00 +16°C° 0 mm 2 mps 754 mmHg 89%
05:00 +16°C° 0 mm 2 mps 755 mmHg 87%
06:00 +18°C° 0 mm 2 mps 755 mmHg 80%
07:00 +20°C° 0 mm 2 mps 755 mmHg 73%
08:00 +23°C° 0 mm 2 mps 755 mmHg 66%
09:00 +24°C° 0 mm 2 mps 755 mmHg 61%
10:00 +26°C° 0 mm 2 mps 755 mmHg 56%
11:00 +27°C° 0 mm 3 mps 755 mmHg 51%
12:00 +28°C° 0 mm 3 mps 754 mmHg 49%
13:00 +28°C° 0 mm 3 mps 754 mmHg 47%
14:00 +29°C° 0 mm 3 mps 754 mmHg 45%
15:00 +29°C° 0 mm 3 mps 754 mmHg 48%
16:00 +29°C° 0 mm 3 mps 754 mmHg 50%
17:00 +28°C° 0 mm 2 mps 753 mmHg 52%
18:00 +27°C° 0 mm 2 mps 753 mmHg 61%
19:00 +25°C° 0 mm 2 mps 753 mmHg 70%
20:00 +23°C° 0 mm 2 mps 753 mmHg 79%
21:00 +21°C° 0 mm 2 mps 753 mmHg 81%
22:00 +20°C° 0 mm 2 mps 753 mmHg 84%
23:00 +19°C° 0 mm 2 mps 753 mmHg 87%
Show more

We Need Your Consent

Meteoprog and our Service Providers may store and access personal data such as cookies, device identifiers or other similar technologies on your device and process such data to personalise content and ads, as well as provide social media features and to analyse the traffic.

  • Store and/or access information on your device

    Cookies, device identifiers or other information can be stored or accessed on your device for the purposes indicated above.

  • Personalised ads and content, ad and content measurement, audience insights, and products development

    Ads and content can be personalised based on a profile. More data can be added to better personalise ads and content. Ad and content performance can be measured. Insights about the audience who saw the ads and content can be derived. Such data can be used to develop or improve user’s experience, systems and software.

By clicking ‘I Agree’ you will allow the use of indicated cookies, device identifiers, web beacons or other similar technologies. Your settings can be changed in the browser on your device.

For certain purposes, legitimate interests may be relied on, rather than consent. You can read more about this in our Privacy and Cookie Policy.